1353891025037,0.000156434
1353891085037,0.000158228
1353891145037,0.000159747
1353891205037,0.000157728
1353891265037,0.000158245
1353894625046,0.000162069
1353894685046,0.000166523
1353894745046,0.000165909
1353894805046,0.000163901
1353894865046,0.000165472
1353898225056,0.000159153
1353898285056,0.000158905
1353898345056,0.000156773
1353898405056,0.000158896
1353898465056,0.000159259
1353901825065,0.000162792
1353901885065,0.000161817
1353901945065,0.000159779
1353902005065,0.000158833
1353902065065,0.000162554
1353905425075,0.000155756
1353905485075,0.000155398
1353905545075,0.000157442
1353905605075,0.000155936
1353905665075,0.000157430
1353909025085,0.000157350
1353909085085,0.000158834
1353909145085,0.000159797
1353909205085,0.000159242
1353909265085,0.000157475
1353912625095,0.000160252
1353912685095,0.000159754
1353912745095,0.000158684
1353912805095,0.000160569
1353912865095,0.000160904
1353916225105,0.000156404
1353916285105,0.000156820
1353916345105,0.000156560
1353916405105,0.000154823
1353916465105,0.000155861
1353919825116,0.000160998
1353919885116,0.000159913
1353919945116,0.000160165
1353920005116,0.000161692
1353920065116,0.000164210
1353923425127,0.000156040
1353923485127,0.000157835
1353923545127,0.000159406
1353923605127,0.000159920
1353923665127,0.000157089
1353927025138,0.000155005
1353927085138,0.000153662
1353927145138,0.000154436
1353927205138,0.000154923
1353927265138,0.000152244
1353930625149,0.000152155
1353930685149,0.000153172
1353930745149,0.000151917
1353930805149,0.000152237
1353930865149,0.000152172
1353934225161,0.000152774
1353934285161,0.000154286
1353934345161,0.000155465
1353934405161,0.000154408
1353934465161,0.000152686
1353937825172,0.000151380
1353937885172,0.000154159
1353937945172,0.000154102
1353938005172,0.000153908
1353938065172,0.000154847
1353941425184,0.000151949
1353941485184,0.000152178
1353941545184,0.000151195
1353941605184,0.000152559
1353941665184,0.000151175
1353945025195,0.000153303
1353945085195,0.000153604
1353945145195,0.000153628
1353945205195,0.000155286
1353945265195,0.000154417
1353948625206,0.000150421
1353948685206,0.000150570
1353948745206,0.000151527
1353948805206,0.000151115
1353948865206,0.000150897
1353952225217,0.000150375
1353952285217,0.000150297
1353952345217,0.000151295
1353952405217,0.000151742
1353952465217,0.000150896
1353955825228,0.000151329
1353955885228,0.000151213
1353955945228,0.000151592
1353956005228,0.000152232
1353956065228,0.000151088
1353959425239,0.000151866
1353959485239,0.000152845
1353959545239,0.000156277
1353959605239,0.000154020
1353959665239,0.000152566
1353963025249,0.000155002
1353963085249,0.000157762
1353963145249,0.000155723
1353963205249,0.000155654
1353963265249,0.000153752
1353966625260,0.000152095
1353966685260,0.000151084
1353966745260,0.000151080
1353966805260,0.000151891
1353966865260,0.000152319
1353970225270,0.000151969
1353970285270,0.000153793
1353970345270,0.000152310
1353970405270,0.000152080
1353970465270,0.000151555
1353973825280,0.000152176
1353973885280,0.000151569
1353973945280,0.000151511
1353974005280,0.000152433
1353974065280,0.000152775
